�N����,����,�~����,�C��,���x,�C��,����,���ϕ���,�ő�u�ԕ���,�ő厞����,���˗�,�I�_���x,�n�����x,�ő啗���N��,DTYPE
"18/10/15","00:10",0.0,15.8,86.1,1014.9,333.0,1.8,2.9,337.2,0.00,13.5,19.0,"00:07:20",1
"18/10/15","00:20",0.0,15.9,86.5,1015.2,331.3,2.2,3.9,325.0,0.00,13.7,19.1,"00:17:36",1
"18/10/15","00:30",0.0,16.0,85.7,1015.2,329.0,2.5,3.9,327.4,0.00,13.6,19.0,"00:22:32",1
"18/10/15","00:40",0.0,16.0,85.6,1015.2,334.3,2.2,3.5,341.3,0.00,13.6,19.0,"00:32:00",1
"18/10/15","00:50",0.0,15.8,86.0,1014.9,332.5,1.7,2.5,326.3,0.00,13.5,19.1,"00:41:36",1
"18/10/15","01:00",0.0,15.6,86.5,1014.9,331.8,1.5,2.6,337.0,0.00,13.4,19.1,"00:55:04",1
"18/10/15","01:10",0.0,15.5,86.9,1014.9,337.6,1.1,2.2,336.4,0.00,13.4,19.1,"01:00:56",1
"18/10/15","01:20",0.0,15.5,87.1,1014.9,340.0,1.2,1.9,336.0,0.00,13.4,19.0,"01:17:52",1
"18/10/15","01:30",0.0,15.5,87.3,1014.9,334.5,1.3,2.4,331.3,0.00,13.4,18.9,"01:21:36",1
"18/10/15","01:40",0.0,15.4,87.8,1014.7,325.9,1.5,2.5,337.3,0.00,13.4,19.1,"01:38:00",1
"18/10/15","01:50",0.0,15.3,88.3,1014.7,330.5,1.6,2.9,336.3,0.00,13.4,19.0,"01:44:16",1
"18/10/15","02:00",0.0,15.3,88.5,1014.7,327.5,1.8,3.1,318.0,0.00,13.5,18.7,"01:58:16",1
"18/10/15","02:10",0.0,15.4,88.0,1014.5,300.6,1.7,3.2,324.1,0.00,13.5,18.9,"02:00:56",1
"18/10/15","02:20",0.0,15.3,88.1,1014.7,305.1,1.3,2.2,308.6,0.00,13.4,18.8,"02:16:40",1
"18/10/15","02:30",0.0,15.2,88.0,1014.5,298.2,1.2,2.4,316.4,0.00,13.3,18.9,"02:28:48",1
"18/10/15","02:40",0.0,15.4,87.8,1014.2,322.2,2.1,3.2,343.9,0.00,13.4,18.9,"02:33:20",1
"18/10/15","02:50",0.0,15.5,87.3,1014.2,304.6,1.5,3.2,320.9,0.00,13.4,18.9,"02:47:44",1
"18/10/15","03:00",0.0,15.5,86.9,1014.2,326.5,1.8,3.1,326.1,0.00,13.4,18.9,"02:55:12",1
"18/10/15","03:10",0.0,15.4,87.1,1014.5,307.3,1.5,2.7,314.1,0.00,13.3,18.6,"03:08:00",1
"18/10/15","03:20",0.0,15.5,87.0,1014.2,325.4,1.7,3.4,341.1,0.00,13.4,18.7,"03:17:12",1
"18/10/15","03:30",0.0,15.5,87.0,1014.2,326.7,1.7,2.7,323.2,0.00,13.4,18.8,"03:23:12",1
"18/10/15","03:40",0.0,15.4,87.2,1014.0,328.2,2.0,3.2,336.7,0.00,13.3,18.8,"03:36:32",1
"18/10/15","03:50",0.0,15.4,87.1,1014.0,328.7,1.7,2.5,333.8,0.00,13.3,18.7,"03:43:36",1
"18/10/15","04:00",0.0,15.5,87.4,1013.8,328.3,2.0,3.4,309.7,0.00,13.5,18.8,"03:56:24",1
"18/10/15","04:10",0.0,15.5,87.6,1014.0,330.4,2.1,3.3,317.1,0.00,13.5,18.7,"04:06:40",1
"18/10/15","04:20",0.0,15.6,87.5,1014.2,328.8,2.3,4.1,307.4,0.00,13.6,18.8,"04:14:18",1
"18/10/15","04:30",0.0,15.6,87.5,1014.2,327.3,2.1,4.1,344.3,0.00,13.6,18.7,"04:28:08",1
"18/10/15","04:40",0.0,15.7,87.3,1014.2,331.4,2.1,3.7,344.2,0.00,13.6,18.8,"04:31:04",1
"18/10/15","04:50",0.0,15.7,87.3,1014.7,329.6,2.5,4.1,322.6,0.00,13.6,18.7,"04:42:58",1
"18/10/15","05:00",0.0,15.7,87.3,1014.5,326.4,2.7,4.8,322.3,0.00,13.6,18.6,"04:59:52",1
"18/10/15","05:10",0.0,15.6,87.4,1014.5,331.7,2.7,4.3,345.1,0.00,13.6,18.7,"05:06:36",1
"18/10/15","05:20",0.0,15.6,87.5,1014.5,332.5,2.3,4.5,340.0,0.00,13.6,18.5,"05:14:10",1
"18/10/15","05:30",0.0,15.6,87.5,1014.5,328.7,2.7,4.7,324.4,0.00,13.6,18.9,"05:23:12",1
"18/10/15","05:40",0.0,15.7,87.4,1014.5,331.9,2.5,3.9,339.7,0.00,13.7,18.6,"05:39:20",1
"18/10/15","05:50",0.0,15.7,87.5,1014.2,334.8,2.3,4.1,347.2,0.00,13.7,18.9,"05:43:44",1
"18/10/15","06:00",0.0,15.6,87.7,1014.5,335.7,2.1,3.6,341.1,0.00,13.6,18.8,"05:58:16",1
"18/10/15","06:10",0.0,15.5,88.0,1014.5,333.9,1.7,3.4,340.2,0.00,13.6,18.7,"06:03:12",1
"18/10/15","06:20",0.0,15.4,88.5,1014.2,327.0,1.8,3.2,336.3,0.00,13.6,18.7,"06:19:36",1
"18/10/15","06:30",0.0,15.4,88.8,1014.0,316.7,1.3,2.7,332.9,0.00,13.6,18.6,"06:21:20",1
"18/10/15","06:40",0.0,15.3,89.1,1014.0,321.9,1.7,2.6,333.3,0.00,13.6,18.6,"06:32:00",1
"18/10/15","06:50",0.0,15.3,89.4,1014.0,285.4,1.1,1.9,310.5,0.00,13.6,18.7,"06:40:32",1
"18/10/15","07:00",0.0,15.3,89.7,1013.8,304.1,1.6,2.8,330.1,0.00,13.7,18.6,"06:58:32",1
"18/10/15","07:10",0.0,15.4,90.1,1013.8,288.9,1.5,2.7,332.3,0.00,13.8,18.7,"07:00:40",1
"18/10/15","07:20",0.0,15.4,90.3,1013.8,277.2,1.2,2.0,328.8,0.01,13.9,18.7,"07:15:44",1
"18/10/15","07:30",0.0,15.5,90.7,1014.2,270.8,1.1,2.0,239.8,0.01,14.0,18.4,"07:22:40",1
"18/10/15","07:40",0.0,15.6,90.5,1014.2,328.5,1.8,3.3,323.6,0.01,14.1,18.7,"07:36:00",1
"18/10/15","07:50",0.0,15.8,90.2,1014.0,317.7,1.0,1.6,322.2,0.02,14.2,18.6,"07:45:28",1
"18/10/15","08:00",0.0,16.0,90.2,1014.0,274.4,0.8,1.6,329.2,0.04,14.4,18.7,"07:50:16",1
"18/10/15","08:10",0.0,16.2,89.4,1014.0,280.8,0.8,1.7,238.9,0.06,14.5,18.7,"08:01:12",1
"18/10/15","08:20",0.0,16.5,88.6,1014.2,291.8,1.0,1.6,240.2,0.06,14.7,18.8,"08:18:24",1
"18/10/15","08:30",0.0,16.8,88.3,1014.2,281.4,0.8,1.3,304.0,0.07,14.9,18.6,"08:26:24",1
"18/10/15","08:40",0.0,17.1,87.3,1014.2,307.7,0.8,1.4,324.3,0.07,15.0,18.8,"08:30:16",1
"18/10/15","08:50",0.0,17.2,86.3,1014.2,315.1,0.6,1.4,336.6,0.06,14.9,18.7,"08:48:56",1
"18/10/15","09:00",0.0,17.5,85.6,1014.0,322.4,1.2,2.1,342.1,0.06,15.1,18.8,"08:57:20",1
"18/10/15","09:10",0.0,17.5,84.5,1014.2,293.5,1.1,1.9,236.7,0.06,14.9,18.9,"09:06:32",1
"18/10/15","09:20",0.0,17.7,84.1,1014.5,293.8,1.1,2.0,324.8,0.09,15.0,19.1,"09:14:16",1
"18/10/15","09:30",0.0,17.6,84.2,1014.2,320.5,1.6,2.9,340.5,0.10,14.9,18.9,"09:22:40",1
"18/10/15","09:40",0.0,17.8,83.0,1014.2,322.5,2.1,3.3,319.8,0.12,14.9,19.0,"09:35:44",1
"18/10/15","09:50",0.0,18.0,81.1,1014.0,301.8,1.5,3.2,325.7,0.10,14.8,19.1,"09:40:08",1
"18/10/15","10:00",0.0,18.2,80.6,1014.0,308.1,1.5,3.2,340.8,0.11,14.9,19.3,"09:51:36",1
"18/10/15","10:10",0.0,18.4,79.6,1013.8,302.7,1.3,2.5,332.5,0.11,14.9,19.3,"10:01:44",1
"18/10/15","10:20",0.0,18.8,78.1,1013.5,310.4,1.3,2.5,330.6,0.12,14.9,19.3,"10:13:36",1
"18/10/15","10:30",0.0,18.6,76.6,1013.5,289.8,1.2,2.1,332.0,0.11,14.5,19.2,"10:22:16",1
"18/10/15","10:40",0.0,19.1,73.8,1013.3,279.4,1.1,2.9,324.7,0.24,14.4,19.4,"10:35:52",1
"18/10/15","10:50",0.0,19.7,72.7,1013.3,262.0,0.6,2.4,325.8,0.29,14.7,19.6,"10:48:00",1
"18/10/15","11:00",0.0,20.0,69.5,1013.3,224.5,0.8,2.6,226.9,0.38,14.3,19.7,"10:51:04",1
"18/10/15","11:10",0.0,20.2,69.1,1013.0,327.4,0.8,2.0,336.8,0.24,14.4,19.6,"11:03:36",1
"18/10/15","11:20",0.0,20.2,69.8,1012.8,323.7,0.6,1.4,354.2,0.29,14.6,19.9,"11:17:44",1
"18/10/15","11:30",0.0,20.8,69.4,1012.8,130.5,0.6,1.7,59.1,0.30,15.0,19.9,"11:27:04",1
"18/10/15","11:40",0.0,21.2,69.7,1012.3,198.4,1.3,2.5,220.6,0.40,15.5,20.1,"11:34:00",1
"18/10/15","11:50",0.0,21.2,68.4,1011.9,185.8,1.3,2.7,131.5,0.41,15.2,20.1,"11:43:20",1
"18/10/15","12:00",0.0,20.9,66.9,1011.6,163.0,1.0,2.5,94.5,0.34,14.6,20.2,"11:50:24",1
"18/10/15","12:10",0.0,21.3,67.2,1011.4,185.2,1.0,3.1,140.6,0.42,15.0,20.4,"12:01:04",1
"18/10/15","12:20",0.0,21.3,66.0,1010.9,155.5,1.0,2.7,213.5,0.30,14.7,20.5,"12:15:28",1
"18/10/15","12:30",0.0,21.2,68.3,1010.9,124.8,1.3,2.8,116.9,0.31,15.2,20.6,"12:25:52",1
"18/10/15","12:40",0.0,21.4,66.4,1010.9,169.8,1.0,2.8,140.4,0.33,14.9,20.6,"12:39:04",1
"18/10/15","12:50",0.0,22.1,66.4,1010.7,161.2,1.3,5.5,121.4,0.49,15.6,20.8,"12:42:08",1
"18/10/15","13:00",0.0,22.4,65.1,1010.4,178.9,1.3,3.2,107.8,0.52,15.6,20.8,"12:57:28",1
"18/10/15","13:10",0.0,23.3,66.7,1010.0,169.7,1.5,3.2,211.7,0.54,16.8,20.9,"13:02:56",1
"18/10/15","13:20",0.0,22.7,64.8,1009.7,115.5,1.6,4.9,212.9,0.51,15.8,21.2,"13:17:36",1
"18/10/15","13:30",0.0,22.7,64.7,1010.0,170.5,1.6,3.6,138.1,0.47,15.8,21.3,"13:21:36",1
"18/10/15","13:40",0.0,22.4,61.5,1009.5,79.7,1.0,2.6,109.9,0.45,14.7,21.3,"13:39:20",1
"18/10/15","13:50",0.0,22.5,62.9,1009.7,130.2,1.1,2.4,315.7,0.41,15.1,21.5,"13:48:00",1
"18/10/15","14:00",0.0,22.8,62.2,1009.7,142.6,0.7,2.1,108.1,0.39,15.2,21.7,"13:55:52",1
"18/10/15","14:10",0.0,22.7,60.3,1009.3,139.9,1.2,2.7,104.9,0.37,14.7,21.7,"14:07:44",1
"18/10/15","14:20",0.0,22.3,63.6,1008.8,189.5,1.3,2.9,204.8,0.26,15.1,21.6,"14:15:20",1
"18/10/15","14:30",0.0,22.9,58.7,1009.5,200.2,1.2,3.1,206.1,0.35,14.4,21.7,"14:24:48",1
"18/10/15","14:40",0.0,23.0,61.2,1008.8,203.2,1.7,3.1,202.8,0.35,15.2,21.6,"14:39:28",1
"18/10/15","14:50",0.0,22.5,60.1,1009.3,229.2,2.1,4.0,221.4,0.28,14.4,21.8,"14:45:28",1
"18/10/15","15:00",0.0,22.2,60.0,1009.7,206.8,1.7,3.6,231.8,0.22,14.1,21.7,"14:55:52",1
"18/10/15","15:10",0.0,22.6,61.3,1009.7,205.8,1.2,2.7,169.5,0.21,14.8,21.7,"15:09:04",1
"18/10/15","15:20",0.0,22.6,63.7,1009.7,173.3,1.2,3.4,139.9,0.21,15.4,21.8,"15:16:16",1
"18/10/15","15:30",0.0,21.9,64.2,1009.5,175.7,1.2,3.3,144.9,0.19,14.9,21.6,"15:20:16",1
"18/10/15","15:40",0.0,21.7,65.0,1009.7,152.1,1.2,2.6,161.8,0.15,14.9,21.6,"15:36:24",1
"18/10/15","15:50",0.0,21.9,63.6,1009.7,153.1,1.0,2.4,141.2,0.18,14.7,21.7,"15:48:08",1
"18/10/15","16:00",0.0,21.5,65.8,1009.7,144.3,0.6,1.9,121.6,0.11,14.9,21.7,"15:55:28",1
"18/10/15","16:10",0.0,22.1,65.4,1009.7,127.3,0.8,3.4,133.3,0.15,15.4,21.7,"16:04:56",1
"18/10/15","16:20",0.0,22.1,63.4,1010.0,162.3,0.8,1.9,123.1,0.11,14.9,21.7,"16:10:24",1
"18/10/15","16:30",0.0,21.9,63.8,1009.7,157.5,1.1,2.6,131.6,0.08,14.8,21.4,"16:26:40",1
"18/10/15","16:40",0.0,21.4,65.9,1010.0,183.1,0.8,1.9,140.2,0.05,14.8,21.5,"16:33:36",1
"18/10/15","16:50",0.0,21.0,67.2,1010.0,179.9,0.7,1.6,162.5,0.02,14.7,21.3,"16:42:48",1
"18/10/15","17:00",0.0,20.8,67.6,1010.2,171.3,0.3,1.8,106.8,0.01,14.6,21.4,"16:54:08",1
"18/10/15","17:10",0.0,20.6,68.5,1010.2,338.9,0.8,1.6,331.7,0.01,14.6,21.4,"17:05:04",1
"18/10/15","17:20",0.0,20.2,70.2,1010.2,312.7,0.7,1.2,326.9,0.00,14.6,21.2,"17:16:08",1
"18/10/15","17:30",0.0,19.6,73.1,1010.2,326.3,0.7,1.3,323.9,0.00,14.7,21.2,"17:25:12",1
"18/10/15","17:40",0.0,19.2,74.9,1010.2,322.5,0.6,1.4,347.3,0.00,14.7,21.1,"17:31:52",1
"18/10/15","17:50",0.0,18.6,78.2,1010.2,314.1,0.7,1.4,337.2,0.00,14.8,20.9,"17:43:44",1
"18/10/15","18:00",0.0,18.0,81.4,1010.9,283.5,0.6,1.0,320.9,0.00,14.8,20.7,"17:56:56",1
"18/10/15","18:10",0.0,17.8,82.0,1010.7,292.9,1.0,1.6,310.1,0.00,14.7,20.8,"18:08:48",1
"18/10/15","18:20",0.0,17.5,83.6,1010.7,271.5,1.1,1.7,269.4,0.00,14.7,20.7,"18:17:20",1
"18/10/15","18:30",0.0,17.2,84.0,1011.2,281.6,1.1,1.6,270.5,0.00,14.5,20.5,"18:21:12",1
"18/10/15","18:40",0.0,17.1,85.0,1010.9,283.7,1.1,1.6,259.3,0.00,14.6,20.2,"18:30:32",1
"18/10/15","18:50",0.0,16.9,85.7,1011.4,280.9,1.1,1.6,306.2,0.00,14.5,20.6,"18:48:08",1
"18/10/15","19:00",0.0,16.7,86.0,1011.4,289.1,1.0,1.6,263.3,0.00,14.4,20.2,"18:55:20",1
"18/10/15","19:10",0.0,16.7,86.8,1011.4,291.2,1.1,1.3,316.7,0.00,14.5,20.3,"19:00:32",1
"18/10/15","19:20",0.0,16.5,87.1,1011.6,297.9,0.8,1.2,331.9,0.00,14.4,20.2,"19:17:44",1
"18/10/15","19:30",0.0,16.4,87.3,1011.6,293.0,0.7,1.4,311.6,0.00,14.3,20.0,"19:20:32",1
"18/10/15","19:40",0.0,16.4,88.2,1011.9,302.1,1.1,1.6,333.6,0.00,14.5,20.1,"19:32:56",1
"18/10/15","19:50",0.0,16.4,88.4,1012.1,318.7,1.3,2.1,336.7,0.00,14.5,19.8,"19:44:40",1
"18/10/15","20:00",0.0,16.2,89.0,1012.1,291.0,0.7,1.2,333.2,0.00,14.4,19.8,"19:59:28",1
"18/10/15","20:10",0.0,16.1,89.0,1011.9,305.3,0.7,1.0,333.3,0.00,14.3,19.8,"20:00:40",1
"18/10/15","20:20",0.0,16.0,90.1,1012.1,293.2,1.0,1.7,313.2,0.00,14.4,19.7,"20:16:08",1
"18/10/15","20:30",0.0,16.1,90.0,1012.1,287.2,0.8,1.2,308.1,0.00,14.5,19.7,"20:22:08",1
"18/10/15","20:40",0.0,16.1,89.9,1012.3,303.4,0.6,1.7,307.6,0.00,14.5,19.7,"20:31:52",1
"18/10/15","20:50",0.0,16.1,90.7,1012.3,282.7,0.6,0.9,297.9,0.00,14.6,19.6,"20:42:24",1
"18/10/15","21:00",0.0,16.2,90.4,1012.1,300.1,0.8,1.2,308.8,0.00,14.7,19.7,"20:52:16",1
"18/10/15","21:10",0.0,16.5,89.9,1012.3,297.7,1.0,1.9,295.3,0.00,14.9,19.4,"21:08:56",1
"18/10/15","21:20",0.0,17.1,88.3,1012.3,316.7,2.3,4.3,317.4,0.00,15.2,19.5,"21:14:24",1
"18/10/15","21:30",0.0,17.2,87.3,1012.3,325.3,1.5,2.4,336.0,0.00,15.1,19.5,"21:20:16",1
"18/10/15","21:40",0.0,17.3,86.9,1012.3,326.7,1.7,2.6,333.8,0.00,15.1,19.4,"21:31:20",1
"18/10/15","21:50",0.0,17.4,86.0,1012.3,329.3,1.5,2.2,328.6,0.00,15.1,19.5,"21:42:40",1
"18/10/15","22:00",0.0,17.4,85.6,1012.3,332.3,1.5,2.2,334.0,0.00,15.0,19.5,"21:54:08",1
"18/10/15","22:10",0.0,17.3,86.1,1012.3,319.9,1.7,2.2,330.4,0.00,15.0,19.3,"22:05:28",1
"18/10/15","22:20",0.0,17.4,85.9,1012.3,307.6,1.5,2.7,327.2,0.00,15.1,19.5,"22:12:24",1
"18/10/15","22:30",0.0,17.2,86.0,1012.6,304.3,0.6,1.3,312.2,0.00,14.9,19.4,"22:29:52",1
"18/10/15","22:40",0.0,17.0,86.4,1012.3,295.1,1.0,1.7,328.2,0.00,14.8,19.3,"22:31:04",1
"18/10/15","22:50",0.0,16.8,87.3,1011.9,279.3,0.8,1.4,305.2,0.00,14.7,19.4,"22:49:36",1
"18/10/15","23:00",0.0,16.7,87.4,1011.9,285.2,0.8,1.1,318.5,0.00,14.6,19.5,"22:54:48",1
"18/10/15","23:10",0.0,16.5,87.8,1011.6,317.3,1.1,1.7,319.2,0.00,14.5,19.3,"23:05:36",1
"18/10/15","23:20",0.0,16.2,88.2,1011.6,311.9,1.1,1.9,316.7,0.00,14.3,19.2,"23:13:44",1
"18/10/15","23:30",0.0,15.9,89.0,1011.6,316.5,1.2,1.9,329.4,0.00,14.1,19.3,"23:21:20",1
"18/10/15","23:40",0.0,15.8,90.0,1011.6,318.6,1.5,2.6,313.8,0.00,14.2,19.3,"23:39:28",1
"18/10/15","23:50",0.0,16.0,89.9,1011.9,308.6,1.6,3.2,328.8,0.00,14.4,19.2,"23:46:40",1
"18/10/15","24:00",0.0,16.2,89.8,1012.1,325.6,1.7,2.5,326.7,0.00,14.6,19.1,"23:55:12",1
